This demonstration page uses our WeatherBlox Daily Observations layout. Learn more.

Left ArrowRight Arrow

Hourly Observations for September 26, 2021

Temp ( °F °C ) Dew Point ( °F °C ) Humidity (%) Winds ( mph kmh ) Pressure ( in mb ) Visibility ( mi km ) Precip ( " mm )
12:53 am 00:53 Clear 63 17.2 45 7.2 52 52 S 9 15 29.89 1012 10 16 0.00 0.00
1:53 am 01:53 Clear 62 16.7 45 7.2 54 54 S 7 11 29.88 1012 10 16 0.00 0.00
2:53 am 02:53 Clear 60 15.6 44 6.7 56 56 S 6 9 29.85 1011 10 16 0.00 0.00
3:53 am 03:53 Clear 60 15.6 44 6.7 56 56 S 8 13 29.82 1010 10 16 0.00 0.00
4:53 am 04:53 Clear 58 14.4 45 7.2 62 62 S 7 11 29.80 1009 10 16 0.00 0.00
5:53 am 05:53 Clear 56 13.3 45 7.2 67 67 S 3 6 29.80 1009 10 16 0.00 0.00
6:53 am 06:53 Clear 52 11.1 45 7.2 77 77 Calm 29.80 1009 10 16 0.00 0.00
7:53 am 07:53 Sunny 53 11.7 45 7.2 74 74 S 3 6 29.80 1009 10 16 0.00 0.00
8:53 am 08:53 Sunny 58 14.4 47 8.3 67 67 SSW 6 9 29.80 1009 10 16 0.00 0.00
9:53 am 09:53 Sunny 65 18.3 49 9.4 56 56 SW 6 9 29.80 1009 10 16 0.00 0.00
10:53 am 10:53 Sunny 71 21.7 50 10 47 47 SSW 8 13 29.80 1009 10 16 0.00 0.00
11:53 am 11:53 Sunny 78 25.6 52 11.1 40 40 Calm 29.77 1008 10 16 0.00 0.00
12:53 pm 12:53 Sunny 85 29.4 52 11.1 32 32 SW 5 7 29.76 1008 10 16 0.00 0.00
1:53 pm 13:53 Sunny 88 31.1 51 10.6 28 28 SW 10 17 29.75 1007 10 16 0.00 0.00
2:53 pm 14:53 Sunny 89 31.7 51 10.6 27 27 SW 13 20 29.71 1006 10 16 0.00 0.00
3:53 pm 15:53 Sunny 93 33.9 47 8.3 21 21 SSW 13 20 29.69 1005 10 16 0.00 0.00
4:53 pm 16:53 Sunny 93 33.9 48 8.9 21 21 SSW 14 22 29.69 1005 10 16 0.00 0.00
5:53 pm 17:53 Sunny 92 33.3 50 10 24 24 WSW 8 13 29.69 1006 10 16 0.00 0.00
6:53 pm 18:53 Sunny 88 31.1 50 10 27 27 SSW 5 7 29.70 1006 10 16 0.00 0.00
7:53 pm 19:53 Clear 76 24.4 54 12.2 47 47 SSE 3 6 29.72 1006 10 16 0.00 0.00
8:53 pm 20:53 Clear 72 22.2 55 12.8 55 55 Calm 29.72 1006 8 13 0.00 0.00
9:53 pm 21:53 Clear 67 19.4 54 12.2 63 63 Calm 29.73 1007 10 16 0.00 0.00
10:53 pm 22:53 Clear 73 22.8 49 9.4 43 43 S 7 11 29.72 1007 10 16 0.00 0.00
11:53 pm 23:53 Clear 72 22.2 46 7.8 40 40 SSW 6 9 29.73 1007 10 16 0.00 0.00

Powered by AerisWeather